[[{"header":{"parameterUnit":"m.s-1","parameterCategory":1,"la1":30.2991,"la2":30.254,"lo1":-89.0895,"lo2":-89.0444,"dy":0.0017,"dx":0.0017,"nx":28,"ny":28,"refTime":"2023-09-10T09:00:00:Z","depth":0,"parameterNumber":2,"parameterNumberName":"U-component_of_WINDS"},"data":[0,0,0,0,0,0,0,0,0,0,0,0,0,0,0,0,0,0,0,0,0,0,0,0,0,0,0,0,0,0,0,0,0,0,0,0,0,0,0,0,0,0,0,0,0,0,0,0,0,0,0,0,0,0,0,0,0,0,-0.9888,-0.9887,0,-0.9856,-0.9856,-0.9856,-0.9818,-0.9817,-0.9817,-0.9816,-0.9785,-0.9785,-0.9785,0,0,0,0,0,0,0,0,0,0,0,0,0,-0.9916,-0.9916,-0.9888,-0.9887,-0.9887,-0.9857,-0.9856,-0.9856,-0.9818,-0.9817,-0.9817,-0.9816,-0.9785,-0.9785,-0.9785,0,0,0,0,0,0,0,0,0,0,0,0,0,-0.9896,-0.9916,-0.9888,-0.9864,-0.9862,-0.9857,-0.9856,-0.9856,-0.9818,-0.9817,-0.9816,-0.9816,-0.9785,-0.9785,-0.9785,-0.98,0,0,-0.9783,-0.9783,0,0,0,0,0,0,0,0,-0.9897,-0.9895,-0.9868,-0.9866,-0.9863,-0.984,-0.9855,-0.9837,-0.9818,-0.9835,-0.9816,-0.9815,-0.9804,-0.9802,-0.9798,-0.9798,-0.9797,-0.9783,-0.9783,-0.9783,-0.9783,0,0,0,0,0,0,0,-0.9899,-0.9896,-0.9875,-0.9868,-0.9865,-0.9856,-0.9852,-0.9851,-0.9825,-0.9833,-0.9831,-0.9827,-0.9803,-0.9799,-0.9797,-0.9797,-0.9783,-0.9783,-0.9783,-0.9783,-0.9808,-0.9809,0,0,0,0,0,0,-0.9903,-0.9898,-0.9876,-0.9874,-0.9878,-0.9856,-0.9852,-0.9849,-0.9825,-0.982,-0.9828,-0.9826,-0.98,-0.9798,-0.9796,-0.9813,-0.9783,-0.9783,-0.9782,-0.9807,-0.9808,-0.9809,0,0,0,0,0,0,-0.9904,-0.9902,-0.9878,-0.9885,-0.9881,-0.9857,-0.9853,-0.9848,-0.9844,-0.9821,-0.9816,-0.9829,-0.9799,-0.9797,-0.9799,-0.9811,-0.9782,-0.9782,-0.9806,-0.9808,-0.9809,-0.9846,0,0,0,0,0,0,-0.9905,-0.9902,-0.9908,-0.9886,-0.9881,-0.9881,-0.9854,-0.9848,-0.9844,-0.984,-0.982,-0.9816,-0.9798,-0.98,-0.9799,-0.981,-0.9782,-0.9805,-0.9807,-0.9808,-0.9843,-0.9848,-0.9853,0,0,0,0,0,-0.9906,-0.9919,-0.9908,-0.9906,-0.9887,-0.9882,-0.9879,-0.9858,-0.9845,-0.985,-0.9835,-0.9817,-0.981,-0.9801,-0.9799,-0.981,-0.9804,-0.9806,-0.9808,-0.9841,-0.9847,-0.9852,0,0,0,0,0,0,-0.9944,-0.9916,-0.9903,-0.9909,-0.9898,-0.9875,-0.9881,-0.9865,-0.9858,-0.9855,-0.9829,-0.9825,-0.9831,-0.9821,-0.9811,-0.9824,-0.9804,-0.9806,-0.983,-0.9836,-0.984,-0.9843,-0.9781,0,0,0,0,0,-0.9953,-0.995,-0.9926,-0.9934,-0.9929,-0.9906,-0.9903,-0.9888,-0.9875,-0.987,-0.9856,-0.9844,-0.984,-0.9837,-0.9831,-0.9842,-0.9837,-0.9849,-0.9853,-0.9857,-0.9859,-0.9864,-0.9869,-0.9816,-0.9816,-0.9816,0,0,-0.9971,-0.9956,-0.9956,-0.9941,-0.9931,-0.9929,-0.9902,-0.9902,-0.9901,-0.987,-0.9872,-0.9861,-0.9847,-0.9853,-0.9855,-0.9845,-0.9873,-0.986,-0.9863,-0.9863,-0.9867,-0.9872,-0.9877,-0.9818,-0.9817,-0.9817,0,0,-1.0004,-0.9992,-0.9997,-0.9987,-0.9971,-0.9956,-0.9958,-0.9937,-0.9929,-0.993,-0.9907,-0.9906,-0.9898,-0.9889,-0.9883,-0.9913,-0.9897,-0.9912,-0.9936,-0.9941,-0.9946,-0.9949,-0.996,-0.9964,-0.9914,-0.9914,-0.9915,0,-1.0029,-1.0025,-1.0002,-1.0003,-0.9997,-0.997,-0.9975,-0.9967,-0.9951,-0.9948,-0.9936,-0.9926,-0.9915,-0.9919,-0.9927,-0.9923,-0.9924,-0.9914,-0.9947,-0.995,-0.9953,-0.9963,-0.9968,-0.9916,-0.9916,-0.9916,-0.9916,0,-1.0057,-1.0055,-1.0061,-1.0046,-1.0041,-1.0044,-1.0022,-1.002,-1.0006,-0.9992,-0.9994,-0.9979,-0.997,-0.997,-0.9956,-0.9972,-0.9967,-0.9951,-0.9931,-0.9961,-0.997,-0.9974,-0.9919,-0.9919,-0.9918,-0.9918,0,0,-1.0113,-1.0084,-1.0087,-1.008,-1.0061,-1.0059,-1.0061,-1.0052,-1.0051,-1.0041,-1.0042,-1.0037,-1.0023,-1.0017,-1.0001,-1.0006,-1.0031,-0.999,-0.9989,-0.9998,-1.0049,-1.0061,-1.0066,-1.002,-1.002,-1.0021,-1.0051,0,-1.0142,-1.0144,-1.0123,-1.0131,-1.0129,-1.0103,-1.0105,-1.0094,-1.0081,-1.0078,-1.0064,-1.0061,-1.0042,-1.0038,-1.0042,-1.0027,-1.0041,-1.0025,-1.0021,-1.0022,-1.0026,-1.0071,-1.0083,-1.0111,-1.0054,-1.0055,-1.0055,0,-1.0177,-1.0168,-1.0176,-1.0156,-1.0155,-1.0157,-1.0147,-1.0144,-1.0131,-1.0122,-1.0115,-1.0097,-1.0099,-1.008,-1.0082,-1.0071,-1.0069,-1.0061,-1.0062,-1.0061,-1.004,-1.0071,-1.012,-1.0124,-1.006,-1.006,-1.006,0,-1.0217,-1.0207,-1.021,-1.0205,-1.0183,-1.0185,-1.0176,-1.0162,-1.0158,-1.0149,-1.0147,-1.0139,-1.0135,-1.0129,-1.011,-1.0098,-1.0115,-1.0094,-1.0107,-1.0108,-1.0112,-1.0112,-1.0162,-1.011,-1.011,-1.011,-1.011,0,-1.0253,-1.0258,-1.0228,-1.023,-1.0236,-1.0212,-1.0219,-1.0207,-1.0195,-1.0195,-1.0172,-1.0172,-1.0147,-1.0145,-1.013,-1.0134,-1.0132,-1.0125,-1.0121,-1.0127,-1.0128,-1.0125,-1.0123,-1.0111,-1.0111,-1.0111,-1.011,0,-1.0299,-1.0279,-1.028,-1.0259,-1.0254,-1.0259,-1.0241,-1.0242,-1.0228,-1.0228,-1.0226,-1.0205,-1.0201,-1.0181,-1.0173,-1.0163,-1.0172,-1.0164,-1.0177,-1.0174,-1.0188,-1.0188,-1.0238,-1.0244,-1.0189,-1.0189,-1.019,0,-1.0323,-1.0326,-1.0305,-1.0303,-1.0295,-1.0292,-1.0287,-1.0265,-1.0261,-1.0247,-1.025,-1.0244,-1.0238,-1.0234,-1.0217,-1.0211,-1.0203,-1.0221,-1.0201,-1.0208,-1.0203,-1.0203,-1.0204,-1.0225,-1.0226,-1.0226,-1.0227,0,-1.0368,-1.0358,-1.0352,-1.0343,-1.0339,-1.0331,-1.0322,-1.0322,-1.0296,-1.0294,-1.0289,-1.0285,-1.0276,-1.0271,-1.0262,-1.0253,-1.0236,-1.0233,-1.0236,-1.0242,-1.0249,-1.0246,-1.0188,-1.0232,-1.0231,-1.0231,-1.0231,-1.023,-1.0404,-1.0406,-1.0391,-1.0386,-1.0377,-1.0369,-1.0369,-1.0355,-1.035,-1.0341,-1.0328,-1.0326,-1.0313,-1.0299,-1.0291,-1.0289,-1.0279,-1.0283,-1.0284,-1.0286,-1.0289,-1.025,-1.0287,-1.0287,-1.0287,-1.0287,-1.0287,0,-1.0448,-1.0437,-1.0433,-1.042,-1.0416,-1.04,-1.0389,-1.0387,-1.0385,-1.0374,-1.0369,-1.0364,-1.0359,-1.0342,-1.0335,-1.0337,-1.0329,-1.0336,-1.0336,-1.0334,-1.0298,-1.0297,-1.0343,-1.0343,-1.0343,-1.0343,-1.0343,-1.0343,-1.0471,-1.0473,-1.0462,-1.046,-1.0449,-1.0446,-1.0441,-1.0434,-1.0425,-1.0421,-1.0416,-1.0405,-1.0392,-1.0384,-1.0379,-1.0374,-1.0373,-1.0383,-1.0376,-1.0342,-1.0337,-1.0332,-1.033,-1.0382,-1.0383,-1.0412,-1.0412,-1.0412]},{"header":{"parameterUnit":"m.s-1","parameterCategory":1,"la1":30.2991,"la2":30.254,"lo1":-89.0895,"lo2":-89.0444,"dy":0.0017,"dx":0.0017,"nx":28,"ny":28,"refTime":"2023-09-10T09:00:00:Z","depth":0,"parameterNumber":3,"parameterNumberName":"V-component_of_WINDS"},"data":[0,0,0,0,0,0,0,0,0,0,0,0,0,0,0,0,0,0,0,0,0,0,0,0,0,0,0,0,0,0,0,0,0,0,0,0,0,0,0,0,0,0,0,0,0,0,0,0,0,0,0,0,0,0,0,0,0,0,3.1751,3.1751,0,3.1748,3.1748,3.1748,3.1729,3.1729,3.1728,3.1728,3.1725,3.1725,3.1725,0,0,0,0,0,0,0,0,0,0,0,0,0,3.174,3.174,3.1751,3.1751,3.1751,3.1748,3.1748,3.1748,3.1729,3.1729,3.1728,3.1728,3.1725,3.1725,3.1725,0,0,0,0,0,0,0,0,0,0,0,0,0,3.1742,3.174,3.1751,3.1741,3.174,3.1748,3.1748,3.1748,3.1729,3.1729,3.1728,3.1727,3.1724,3.1725,3.1726,3.1742,0,0,3.1727,3.1727,0,0,0,0,0,0,0,0,3.1741,3.1742,3.1742,3.1742,3.1741,3.1738,3.1743,3.1746,3.1729,3.1733,3.1728,3.1727,3.173,3.173,3.1731,3.1742,3.1742,3.1727,3.1727,3.1728,3.1728,0,0,0,0,0,0,0,3.1741,3.1742,3.1749,3.1742,3.1741,3.1737,3.1736,3.1743,3.1735,3.1733,3.1732,3.1732,3.1729,3.173,3.1731,3.1742,3.1727,3.1728,3.1728,3.1728,3.1767,3.1768,0,0,0,0,0,0,3.1743,3.1742,3.175,3.1749,3.1739,3.1738,3.1737,3.174,3.1735,3.1734,3.1732,3.1731,3.173,3.173,3.173,3.1749,3.1728,3.1728,3.1728,3.1767,3.1768,3.1768,0,0,0,0,0,0,3.1742,3.1743,3.175,3.1745,3.1746,3.1738,3.1742,3.174,3.1741,3.1735,3.1733,3.1735,3.1729,3.173,3.174,3.1749,3.1728,3.1729,3.1766,3.1767,3.1768,3.1788,0,0,0,0,0,0,3.1742,3.1744,3.175,3.1746,3.1746,3.1759,3.1742,3.174,3.1742,3.174,3.1737,3.1736,3.1729,3.1739,3.174,3.1749,3.1729,3.1765,3.1766,3.1768,3.1787,3.179,3.1793,0,0,0,0,0,3.1742,3.1755,3.175,3.1751,3.1754,3.1759,3.176,3.1752,3.1743,3.1749,3.1745,3.1736,3.1748,3.174,3.1741,3.1751,3.1764,3.1766,3.1767,3.1785,3.1789,3.1792,0,0,0,0,0,0,3.176,3.1755,3.1749,3.1761,3.1761,3.1756,3.1764,3.1756,3.1758,3.1756,3.1746,3.1746,3.1757,3.1755,3.1746,3.1767,3.1755,3.1757,3.1768,3.1771,3.1774,3.1774,3.173,0,0,0,0,0,3.1766,3.1771,3.1766,3.1778,3.1778,3.1771,3.1773,3.1767,3.1766,3.1766,3.1763,3.1762,3.1766,3.1769,3.1772,3.1787,3.1785,3.1794,3.1797,3.18,3.1801,3.1808,3.1812,3.1774,3.1774,3.1774,0,0,3.1778,3.1775,3.1779,3.1781,3.178,3.1786,3.1771,3.1777,3.1781,3.1767,3.1776,3.1774,3.1773,3.1785,3.179,3.1784,3.1812,3.1802,3.1804,3.1804,3.181,3.1814,3.1817,3.1775,3.1775,3.1774,0,0,3.1801,3.18,3.1809,3.1809,3.1808,3.1803,3.1806,3.1802,3.18,3.1809,3.1799,3.1804,3.1811,3.181,3.1811,3.1836,3.1827,3.1837,3.1852,3.1859,3.1862,3.1865,3.1873,3.1876,3.1839,3.1839,3.1839,0,3.1815,3.1823,3.1815,3.1822,3.1824,3.1812,3.1821,3.1821,3.1821,3.1822,3.1816,3.1824,3.1823,3.1834,3.1841,3.1842,3.1844,3.1837,3.1863,3.1865,3.1868,3.1875,3.1878,3.184,3.184,3.184,3.184,0,3.184,3.1846,3.1854,3.1854,3.1857,3.1865,3.1859,3.1862,3.1856,3.1853,3.1862,3.186,3.1863,3.1865,3.186,3.1877,3.1873,3.1865,3.1851,3.1872,3.1879,3.1882,3.1842,3.1841,3.1841,3.1841,0,0,3.1874,3.1871,3.1874,3.1874,3.1872,3.1877,3.1885,3.1888,3.189,3.1891,3.1898,3.1904,3.1897,3.1898,3.1892,3.1899,3.1918,3.189,3.1889,3.1894,3.1936,3.1941,3.1945,3.1913,3.1913,3.1914,3.1936,0,3.1896,3.1909,3.1903,3.1917,3.1922,3.1911,3.1918,3.1918,3.1915,3.1919,3.1916,3.1921,3.1911,3.1911,3.1918,3.1914,3.1926,3.1913,3.1918,3.1918,3.1917,3.1948,3.1954,3.1975,3.1938,3.1939,3.1939,0,3.1923,3.1925,3.1939,3.1937,3.1939,3.1946,3.1948,3.1952,3.1952,3.1949,3.1951,3.1944,3.1952,3.194,3.1951,3.1942,3.1944,3.1943,3.1943,3.1942,3.1929,3.1947,3.1981,3.1984,3.1943,3.1943,3.1943,0,3.1945,3.1951,3.1961,3.1962,3.196,3.1964,3.1964,3.1963,3.1965,3.1967,3.1969,3.1972,3.1973,3.1976,3.197,3.1962,3.1981,3.1969,3.1979,3.1979,3.1982,3.1982,3.2016,3.1985,3.1985,3.1985,3.1985,0,3.1969,3.1978,3.1971,3.1977,3.1987,3.198,3.199,3.1988,3.1988,3.1993,3.1985,3.199,3.1982,3.1987,3.1982,3.1991,3.1992,3.199,3.1989,3.199,3.199,3.1991,3.1989,3.1986,3.1986,3.1986,3.1986,0,3.1994,3.199,3.2,3.1998,3.1997,3.2005,3.2003,3.2008,3.2005,3.2012,3.2013,3.2008,3.2013,3.2008,3.2012,3.201,3.2022,3.2019,3.2022,3.202,3.203,3.2029,3.2064,3.2068,3.2036,3.2037,3.2037,0,3.201,3.2016,3.2015,3.2018,3.2018,3.2023,3.2026,3.202,3.2022,3.2023,3.2028,3.2033,3.2035,3.2044,3.2041,3.2044,3.204,3.2053,3.2041,3.2042,3.204,3.2039,3.2039,3.2055,3.2055,3.2055,3.2056,0,3.2037,3.2035,3.2038,3.2042,3.2045,3.2047,3.2049,3.2052,3.2045,3.2049,3.2054,3.2056,3.2061,3.2065,3.2068,3.2067,3.206,3.206,3.2062,3.2063,3.2064,3.2063,3.2027,3.2059,3.2058,3.2058,3.2058,3.2058,3.2057,3.2063,3.2063,3.2067,3.2068,3.207,3.2075,3.2073,3.2077,3.208,3.2077,3.2083,3.2083,3.2086,3.2086,3.2091,3.2086,3.2089,3.209,3.2091,3.2092,3.2065,3.2092,3.2091,3.2091,3.2091,3.2091,0,3.2083,3.2083,3.2087,3.209,3.2094,3.2088,3.2089,3.2093,3.2098,3.2099,3.2103,3.2108,3.2113,3.211,3.2114,3.2118,3.2115,3.2119,3.2118,3.2118,3.2097,3.2094,3.2122,3.2122,3.2122,3.2122,3.2122,3.2122,3.2097,3.2106,3.2104,3.2113,3.2113,3.2119,3.2121,3.2122,3.2123,3.213,3.2134,3.2132,3.2132,3.2136,3.2139,3.2139,3.214,3.2145,3.2143,3.2123,3.212,3.2117,3.2114,3.2146,3.2146,3.2164,3.2164,3.2165]}]]